Probability
0 0 0 0 0 0 0 0 0 1 2 2 1 0 0 0 0 0 0 0 0 0 0 0 0 0 0 0 0 0 0 0 0 0 0 1 4 10 15 16 16 17 14 13
0 0 0 0 0 0 0 0 0 0 1 1 0 0 0 0 0 0 0 0 0 0 0 0 0 0 0 0 0 0 0 0 0 0 0 0 2 6 10 11 13 13 11 10
0 0 1 1 1 0 0 0 0 0 0 0 0 0 0 0 0 0 0 0 0 0 0 0 0 0 0 0 0 0 0 0 0 0 0 0 0 2 4 7 9 10 9 7
0 0 1 1 1 0 0 0 0 0 0 0 0 0 0 0 0 0 0 0 0 0 0 0 0 0 0 0 0 0 0 0 0 0 0 0 0 1 2 5 7 9 8 6
0 0 0 0 0 0 0 0 0 0 0 0 0 0 0 0 0 0 0 0 0 0 0 0 0 0 0 0 0 0 0 0 0 0 0 0 0 0 1 3 4 5 6 5
0 0 0 0 0 0 0 0 0 0 0 0 0 0 0 0 0 0 0 0 0 0 0 0 0 0 0 0 0 0 0 0 0 0 0 0 0 0 0 1 1 1 2 2
0 0 0 0 0 0 0 0 0 0 0 0 0 0 0 0 0 0 0 0 0 0 0 0 1 0 0 0 0 0 0 0 0 0 0 0 0 0 0 0 0 0 0 1
0 0 0 0 0 0 0 0 0 0 0 0 0 0 0 0 0 0 0 0 0 0 0 1 2 1 0 0 0 0 0 0 0 0 0 0 0 0 0 0 0 0 0 0
0 0 0 0 0 0 0 0 0 0 0 0 0 0 0 0 0 0 0 0 0 0 0 0 1 0 0 0 0 0 0 0 0 0 0 0 0 0 0 0 0 0 0 0
0 0 0 0 0 0 0 0 0 0 0 0 0 0 0 0 0 0 0 0 0 0 0 0 0 0 0 0 0 0 0 0 0 0 0 0 0 0 0 0 0 0 0 0
0 0 0 0 0 0 0 0 0 0 0 0 0 0 0 0 0 0 0 0 0 0 0 0 0 0 0 0 0 0 0 0 0 0 0 0 0 0 0 0 0 0 0 0
0 0 0 0 0 0 0 0 0 0 0 0 0 0 0 0 0 0 0 0 0 0 0 0 0 0 0 0 0 0 0 0 0 0 0 0 0 0 0 0 0 0 0 0
0 0 0 0 0 0 0 0 0 0 0 0 0 0 0 0 0 0 0 0 0 0 0 0 0 0 0 0 0 0 0 0 0 0 0 0 0 0 0 0 0 0 0 0
0 0 0 0 0 0 0 0 0 0 0 0 0 0 0 0 0 0 0 0 0 0 0 0 0 0 0 0 0 0 0 0 0 0 0 0 0 0 0 0 0 0 0 0
0 0 0 0 0 0 0 0 0 0 0 0 0 0 0 0 0 0 0 0 0 0 0 0 0 0 0 0 0 0 0 0 0 0 0 0 0 0 0 0 0 0 0 0
0 0 0 0 0 0 0 0 0 0 0 0 0 0 0 0 0 0 0 0 0 0 0 0 0 0 0 0 0 0 0 0 0 0 0 0 0 0 0 0 0 0 0 0
0 0 0 0 0 0 0 0 0 0 0 0 0 0 0 0 0 0 0 0 0 0 0 0 0 0 0 0 0 0 0 0 0 0 0 0 0 0 0 0 0 0 0 0
0 0 0 0 0 0 0 0 0 0 0 0 0 0 0 0 0 0 0 0 0 0 0 0 0 0 0 0 0 0 0 0 0 0 0 0 0 0 0 0 0 0 0 0
0 0 0 0 0 0 0 0 0 0 0 0 0 0 0 0 0 0 0 0 0 0 0 0 0 0 0 0 0 0 0 0 0 0 0 0 0 0 0 0 0 0 0 0
0 0 0 0 0 0 0 0 0 0 0 0 0 0 0 0 0 0 0 0 0 0 0 0 0 0 0 0 0 0 0 0 0 0 0 0 0 0 0 0 0 0 0 0
0 0 0 0 0 0 0 0 0 0 0 0 0 0 0 0 0 0 0 0 0 0 0 0 0 0 0 0 0 0 0 0 0 0 0 0 0 0 0 0 0 0 0 0
0 0 0 0 0 0 0 0 0 0 0 0 0 0 0 0 0 0 0 0 0 0 0 0 0 0 0 0 0 0 0 0 0 0 0 0 0 0 0 0 0 0 0 0
0 0 0 0 0 0 0 0 0 0 0 0 0 0 0 0 0 0 0 0 0 0 0 0 0 0 0 0 0 0 0 0 0 0 0 0 0 0 0 0 0 0 0 0
0 0 0 0 0 0 0 0 0 0 0 0 0 0 0 0 0 0 0 0 0 0 0 0 0 0 0 0 0 0 0 0 0 0 0 0 0 0 0 0 0 0 0 0
0 0 0 0 0 0 0 0 0 0 0 0 0 0 0 0 0 0 0 0 0 0 0 0 0 0 0 0 0 0 0 0 0 0 0 0 0 0 0 0 0 0 0 0
0 0 0 0 0 0 0 0 0 0 0 0 0 0 0 0 0 0 0 0 0 0 0 0 0 0 0 0 0 0 0 0 0 0 0 0 0 0 0 0 0 0 0 0
0 0 0 0 0 0 0 0 0 0 0 0 0 0 0 0 0 0 0 0 0 0 0 0 0 0 0 0 0 0 0 0 0 0 0 0 0 0 0 0 0 0 0 0
Wind_Speed
12 11 8 7 7 7 8 9 10 10 5 5 5 6 8 10 11 12 11 11 10 10 10 10 11 11 11 12 11 11 12 12 12 12 12 12 13 13 12 12 12 11 12 11
11 7 4 1 5 5 4 6 7 6 2 5 6 7 9 11 12 13 12 12 12 13 13 14 14 14 13 13 13 13 13 14 13 13 13 13 13 13 13 12 11 11 11 12
8 2 7 2 7 8 6 5 7 7 5 7 11 12 12 13 14 13 13 14 16 16 16 15 15 15 15 15 15 14 15 15 14 14 14 14 14 14 13 13 12 11 11 11
8 7 6 8 6 7 6 4 4 4 6 10 13 14 15 15 13 13 16 18 18 18 18 17 17 16 16 16 16 16 16 15 15 15 15 15 14 14 13 12 11 11 10 11
6 9 3 6 6 8 9 9 2 6 11 14 15 18 16 10 13 17 19 19 18 18 19 18 18 17 17 17 17 16 16 16 15 15 16 16 15 15 13 12 11 11 10 10
6 10 5 6 7 7 8 6 2 11 16 17 19 17 14 17 20 20 20 18 19 19 19 19 18 17 18 18 18 17 16 16 15 15 16 16 16 15 13 12 12 11 10 9
8 7 4 5 7 8 9 9 13 16 17 18 19 18 20 21 21 20 20 21 20 20 18 18 18 18 19 19 18 17 17 16 16 16 16 17 15 14 13 12 12 11 11 9
6 6 4 6 8 7 10 13 15 17 18 20 21 22 22 22 22 21 21 22 21 19 19 18 17 18 19 19 18 18 17 17 17 16 16 14 14 13 13 12 12 11 9 8
5 5 4 6 7 9 11 14 17 18 20 21 23 23 23 22 22 22 22 22 21 21 21 19 18 18 19 19 18 18 18 17 17 17 15 15 15 14 12 11 10 9 7 6
4 3 6 9 9 11 13 16 19 20 21 22 24 24 24 23 22 22 22 21 20 21 21 20 19 19 19 19 18 18 18 17 16 15 15 14 12 11 11 10 9 8 7 5
7 6 10 8 12 15 17 19 20 21 22 23 24 25 25 23 23 22 21 21 20 20 20 22 20 19 19 18 18 18 17 16 15 14 13 12 12 11 11 11 8 8 7 5
7 9 11 15 15 19 19 20 21 23 24 23 23 25 25 23 22 22 22 21 21 21 22 22 21 20 20 18 17 16 15 14 12 11 10 11 11 11 11 13 10 10 11 9
8 12 14 17 18 19 19 22 23 23 24 25 23 23 24 23 22 22 22 23 23 23 22 22 21 21 19 17 16 15 15 13 10 10 10 10 10 10 10 9 13 14 13 13
10 12 16 17 19 20 21 23 23 24 24 24 23 23 23 23 23 23 24 24 23 23 22 21 20 19 17 16 15 15 14 13 12 10 10 10 10 10 9 9 8 6 8 12
11 14 16 18 19 20 22 23 24 24 24 24 23 23 23 24 24 24 23 23 22 22 21 20 19 19 16 16 15 14 12 10 9 9 9 10 10 9 9 10 8 6 4 6
14 16 17 19 20 22 23 24 24 25 25 25 24 23 24 23 23 23 22 21 21 21 20 19 19 18 16 15 14 11 10 14 13 9 9 9 9 8 8 7 6 5 5 6
15 17 18 20 21 23 24 24 24 24 25 25 25 24 24 23 23 22 22 21 20 20 20 18 17 16 14 13 12 9 9 10 13 10 9 9 8 7 7 6 5 5 6 8
14 16 18 20 21 23 24 24 24 24 23 24 24 23 23 23 22 22 21 21 20 19 18 16 15 14 14 13 10 8 8 8 7 7 7 7 6 6 6 5 6 6 7 10
15 17 19 20 21 21 22 22 23 23 23 22 22 22 22 21 21 21 21 20 19 18 16 15 15 14 13 12 11 7 7 7 7 6 6 6 6 5 5 5 5 6 8 10
15 17 19 21 21 21 21 21 22 21 21 21 22 22 21 21 20 21 20 18 15 13 14 15 15 12 11 9 9 6 6 5 6 5 5 4 4 4 4 5 6 8 9 11
16 18 20 20 20 20 20 21 20 20 21 21 21 21 20 21 20 19 17 15 15 14 15 14 11 9 7 6 7 6 4 4 4 4 4 3 3 3 4 5 7 8 9 12
16 17 19 19 19 19 19 18 19 20 21 20 21 20 20 20 20 18 16 12 13 14 12 10 8 8 8 9 5 4 4 4 3 3 3 3 2 3 4 7 8 9 10 12
15 16 17 18 18 19 19 18 19 19 19 20 20 20 19 18 15 14 14 12 13 15 12 9 9 10 11 7 4 3 3 3 2 2 2 2 2 4 5 7 8 10 11 12
14 15 16 16 17 17 18 18 18 16 18 18 18 19 18 15 13 12 12 15 15 15 10 8 10 10 10 5 3 2 2 2 1 1 1 2 4 5 7 8 9 10 11 13
13 14 15 15 15 14 16 17 17 17 17 15 18 18 15 12 13 14 14 15 16 13 10 9 9 9 6 4 3 3 2 1 1 1 1 3 5 7 8 9 10 10 10 10
12 11 11 12 12 12 12 13 13 13 13 14 14 14 14 12 14 13 12 15 16 13 11 9 8 7 5 4 4 3 2 0 0 1 3 5 7 7 8 10 12 10 10 9
11 10 9 10 11 12 12 12 13 13 13 13 14 14 14 13 13 14 15 13 12 11 10 9 8 7 6 5 5 4 3 2 3 4 4 5 7 8 9 11 9 9 9 9
Wind_Direction
286 295 296 302 312 308 297 305 305 324 351 47 22 345 336 332 327 321 318 318 317 313 313 312 311 310 308 309 310 310 309 309 309 311 313 313 312 308 302 295 283 274 267 259
281 284 281 319 7 342 337 330 320 313 33 43 341 323 317 313 307 302 302 303 305 307 309 309 308 305 305 305 305 305 304 304 305 305 306 307 308 307 303 297 291 280 268 261
288 322 239 151 23 357 352 350 332 329 2 338 318 314 311 305 299 300 307 310 309 309 308 306 304 303 301 300 300 299 299 300 301 301 301 303 305 306 303 299 293 284 272 261
294 285 278 71 37 6 342 327 329 317 316 313 306 305 299 289 296 309 313 312 311 310 307 305 304 302 299 298 297 294 294 295 298 298 297 298 298 298 299 298 294 285 276 265
303 301 121 105 30 358 326 303 305 310 315 315 316 307 297 318 328 316 311 309 308 306 305 304 302 302 300 298 295 293 293 295 297 299 296 294 293 294 296 296 293 286 276 265
314 305 328 68 15 336 295 277 49 325 321 320 316 308 316 329 317 308 307 306 305 304 302 300 301 300 297 295 294 293 293 294 296 295 292 289 289 289 290 290 287 287 278 264
323 313 75 43 343 315 295 340 341 323 315 311 310 306 308 309 307 307 305 303 302 300 299 299 299 297 293 292 292 292 292 292 292 290 288 285 282 281 282 282 284 285 279 266
324 317 54 16 334 331 322 320 313 311 311 310 308 305 305 306 306 305 304 303 303 300 297 296 295 293 290 290 292 292 290 288 288 287 285 284 282 278 277 277 278 278 275 267
343 355 10 335 314 310 309 307 310 311 311 309 306 306 307 307 306 305 304 303 302 299 298 297 295 293 291 292 292 290 287 286 286 285 283 279 277 274 271 267 268 271 271 263
283 289 317 313 309 314 314 312 311 310 309 309 308 307 307 306 305 304 303 303 303 302 299 298 298 295 292 292 290 287 285 284 283 281 278 276 273 270 267 264 264 265 263 253
281 314 313 308 323 321 317 312 309 309 309 309 307 306 306 305 305 305 305 304 303 301 298 297 297 295 294 291 289 286 283 281 279 277 277 277 272 267 268 266 262 267 271 249
329 338 315 315 320 316 313 312 312 311 309 308 307 306 306 305 305 305 304 304 303 301 299 298 297 295 293 291 287 284 281 279 278 275 273 270 270 270 254 249 247 240 246 246
309 314 310 310 310 314 315 313 311 310 309 309 309 309 308 307 306 306 305 304 304 302 301 299 298 295 295 293 288 283 279 278 275 273 272 268 265 266 270 253 232 232 231 227
303 305 305 310 315 314 312 313 311 310 311 311 312 311 310 308 308 308 306 305 304 303 301 299 297 296 297 295 289 283 280 277 271 266 266 262 259 260 261 263 257 241 219 209
309 312 310 312 312 315 316 315 315 314 316 315 315 314 313 312 310 308 307 307 305 303 301 300 299 298 297 294 290 285 281 276 270 266 261 256 255 256 255 256 252 246 217 179
312 311 313 316 317 318 318 319 318 317 318 317 317 316 315 312 309 308 308 308 306 304 303 300 296 294 294 292 287 281 275 272 269 265 260 255 250 247 246 248 237 226 201 170
314 317 320 319 319 319 320 320 318 318 318 318 318 317 315 313 311 309 309 309 306 303 301 297 294 293 293 289 285 280 276 271 265 262 257 254 249 241 239 235 221 211 193 168
313 314 317 319 320 320 319 320 320 320 319 318 317 316 315 314 312 311 310 309 305 302 300 299 299 301 297 291 286 278 271 266 263 260 255 252 243 236 228 220 212 207 170 159
317 318 320 320 320 319 319 320 320 319 318 318 317 316 314 313 313 312 311 309 306 304 305 307 307 301 296 292 289 275 267 264 262 259 255 235 233 232 217 207 206 181 159 159
320 321 321 321 321 322 320 320 320 319 318 319 317 316 316 316 315 313 312 309 306 307 310 312 310 306 300 296 294 281 274 266 261 262 259 239 227 215 205 204 184 163 160 162
322 322 323 323 322 321 321 322 321 319 320 320 320 320 318 316 316 315 313 311 313 319 319 313 309 312 310 312 296 285 277 266 263 267 261 245 227 202 192 174 160 159 159 162
324 323 323 323 322 321 323 322 321 322 323 324 323 322 321 320 319 317 312 311 315 321 320 318 320 326 322 310 291 284 278 276 273 270 262 246 214 178 156 151 153 154 158 161
323 323 322 323 323 321 320 324 328 328 327 326 324 324 324 320 318 318 317 318 319 321 320 324 326 321 311 299 293 289 284 283 281 273 255 219 171 152 146 147 149 152 157 158
322 322 322 322 322 321 325 330 330 329 328 327 325 325 324 321 320 321 318 315 318 318 322 327 319 316 302 294 306 308 308 304 285 271 251 194 160 151 148 146 145 149 154 157
322 321 322 325 325 327 328 330 331 332 332 329 327 327 327 325 323 325 325 328 334 330 333 335 323 315 313 338 348 356 2 8 321 282 212 159 143 139 138 139 142 147 152 156
321 319 325 321 325 327 331 333 332 331 330 329 329 329 330 330 330 331 332 334 342 342 342 344 348 344 355 5 13 16 25 75 225 149 123 123 127 131 132 134 137 140 143 147
320 326 326 328 335 339 336 332 330 330 332 334 331 330 332 335 336 338 339 341 345 348 348 349 354 360 6 14 20 20 26 51 81 95 106 114 118 122 126 129 129 131 135 139